Vertical_Velocity
3 3 3 -1 -4 -0 -3 -2 -2 -2 -0 -0 -1 -2 -2 -0 -0 -0 -0 -0 -3 4 1 0 1 2 1 -1 -1 1 -3 -0 -1 5 -2 0 0 -0 -2 -1 -1 -1 -0
4 2 -1 -0 -1 -1 -2 -3 -2 -2 -1 -1 1 2 -0 1 0 1 1 -1 0 -0 2 1 2 -0 -0 3 -1 1 1 1 -3 2 -1 0 -1 1 -1 0 -1 -1 -0
-1 -1 0 -7 -2 -3 -4 0 -3 -0 -1 -1 -1 2 1 -0 -1 1 4 1 5 -5 -1 5 -2 5 -2 -2 -1 1 -3 -2 -1 -2 2 -1 1 0 -1 -0 -2 -2 -2
-2 1 -4 -0 -1 -0 -1 -2 -1 -3 -1 1 -1 0 3 0 0 -1 0 2 3 -0 -6 2 -2 3 -0 1 1 -3 -2 -3 1 -5 2 -2 2 1 0 -1 -2 -2 -1
-0 -1 -1 1 -1 -2 -0 -0 -5 1 -0 -1 1 -0 -1 4 2 1 1 -0 2 0 0 1 1 -1 -1 5 1 -2 -3 0 -5 -1 -0 1 -0 1 -0 -1 -1 -1 0
2 1 -0 -3 -3 -2 -0 -2 -1 0 0 -0 -0 -1 1 1 3 0 -1 1 3 -2 -1 -1 3 -2 -0 5 1 -5 3 1 -1 -1 0 -0 -1 -1 1 -1 0 1 -4
-3 -4 -3 -3 -3 1 4 -1 -2 -1 -2 -1 2 -4 -0 1 3 1 -1 4 -8 6 -1 9 -3 -1 -1 2 -2 -1 1 -2 -0 -3 -2 -2 -3 -4 -0 -0 0 -1 1
2 3 4 2 2 -1 -3 -3 -2 -0 2 -4 2 0 0 2 -2 3 6 4 -3 -4 3 -0 -3 -0 1 -0 -1 2 -3 -1 -2 1 0 -1 -1 -1 -2 -0 0 0 -1
1 -2 -2 -1 -2 -2 -3 -2 0 -0 -1 -1 1 -0 2 1 -2 3 1 7 -3 -2 1 1 1 1 -2 -1 5 -2 -2 1 0 1 -0 -1 -2 -2 -1 -0 -0 0 -1
-1 -3 -1 -2 -2 1 0 0 -1 -3 -1 1 1 1 -2 -1 -0 0 6 1 -3 3 1 1 1 -1 -2 2 -1 -1 -3 0 0 -0 -1 0 -1 -2 -1 -1 -0 -0 -1
0 -0 -2 -1 0 -1 -1 -1 -1 -1 2 0 0 -1 0 2 1 4 2 -2 1 1 0 1 -1 -1 1 1 -2 -0 -2 -0 -0 -0 -1 1 1 0 -1 -1 -1 -1 -1
0 -1 -1 -1 -2 -3 -3 1 -0 -1 0 -2 -1 -1 1 1 2 0 -0 1 0 1 -0 -1 -1 2 1 -1 -3 -2 -0 0 -0 -0 -1 -0 1 0 -0 -1 -1 -2 -2
-1 0 1 -0 0 -0 -4 1 -1 0 -1 1 2 3 3 1 -1 1 2 1 1 1 -0 -0 1 -1 -2 -0 0 1 1 0 -0 -1 1 -1 -0 -1 -1 -0 -1 -1 -1
-0 1 0 -2 -1 -3 -3 1 0 -0 1 2 2 1 0 1 2 2 1 -0 -1 0 1 -1 -2 -1 -0 0 -1 1 -2 -1 -1 -3 0 0 -0 -1 -2 -1 -1 -2 -0
-1 -1 -2 2 2 -1 -2 2 0 0 1 1 1 -0 1 1 -1 1 0 -1 -0 -0 -1 -1 -2 1 0 0 -1 1 -2 -1 -2 -1 0 -1 0 0 -1 -0 -0 -1 -1
6 4 1 3 7 -0 -3 -3 -1 2 1 0 0 1 1 1 2 1 0 0 0 0 -0 -0 -1 -1 1 -1 1 -1 -1 -1 -1 -0 1 -0 -0 0 -0 0 0 -1 -1
-3 -0 0 2 1 4 -2 2 1 2 -0 1 2 2 2 0 0 -0 -1 -1 -1 -0 0 1 -0 -1 -1 1 0 -2 -1 0 -0 -0 0 -1 -0 -0 -1 0 -1 -0 1
-1 -1 -0 2 2 0 6 -1 1 2 2 1 1 0 0 1 2 2 0 -1 1 -2 -3 -3 -2 -2 -0 1 -1 -1 -1 0 0 -0 -0 -1 -1 -1 0 -0 -1 0 1
-0 -0 -1 0 1 2 3 7 -1 -1 1 0 -0 1 1 -1 -3 -1 -2 0 -3 -1 -1 -0 -2 -1 1 0 0 1 1 0 0 -0 -0 -0 -0 0 1 0 0 -0 -1
1 1 -1 -1 -0 3 5 5 7 6 5 4 4 8 3 2 2 2 1 0 -0 2 1 1 1 1 1 1 0 0 0 -0 1 0 -0 0 0 0 0 -1 -1 -0 -1
1 1 -0 -2 -1 -0 -1 -2 -2 -3 -3 2 0 -2 -2 -1 -1 -0 1 2 1 2 4 2 1 1 3 1 -0 1 0 1 0 -1 0 0 -0 0 -0 -1 -1 -1 -0
1 1 0 2 -0 -0 2 1 3 3 2 1 2 1 -2 -4 -1 -1 -1 -0 0 -0 1 -1 1 1 2 0 2 2 2 1 0 0 1 -0 -1 -1 -0 0 1 0 0
-0 0 1 -1 1 1 -1 -0 -1 -1 -1 -1 1 2 3 0 -1 -3 -1 0 1 2 0 1 2 1 1 5 2 1 1 1 0 0 0 -0 -0 -0 -0 0 -1 0 0
-0 -0 0 0 -0 -1 0 -0 0 0 0 0 0 0 -1 0 1 2 -0 2 2 1 1 1 2 2 4 2 1 2 2 0 -0 1 0 1 0 -0 -1 -0 -0 -0 -1
-0 -1 0 -0 -0 -0 0 -1 -0 -1 -1 1 0 0 -0 -0 0 1 1 1 2 1 2 2 3 2 2 2 2 1 2 1 1 -0 1 1 1 -0 -1 -1 -1 -1 0
-0 -0 0 0 0 0 0 -0 -0 -0 1 1 1 -1 -1 -0 1 2 2 2 2 3 3 3 1 1 1 1 1 0 1 1 1 0 1 2 2 2 -0 -1 -0 -1 3
Height
3095 3097 3099 3100 3101 3101 3101 3100 3099 3098 3097 3096 3096 3095 3094 3093 3092 3091 3090 3089 3088 3087 3087 3085 3085 3083 3083 3082 3083 3082 3082 3081 3080 3079 3078 3077 3076 3074 3072 3070 3068 3068 3067
3086 3089 3090 3091 3093 3093 3092 3092 3092 3090 3090 3088 3087 3086 3086 3085 3084 3083 3082 3081 3080 3080 3080 3079 3078 3078 3077 3076 3077 3075 3076 3074 3073 3072 3072 3071 3069 3068 3067 3066 3065 3064 3063
3078 3080 3082 3084 3085 3085 3084 3083 3083 3082 3081 3080 3079 3078 3077 3077 3076 3075 3075 3074 3074 3073 3074 3073 3072 3072 3072 3071 3071 3070 3069 3069 3068 3067 3066 3065 3064 3064 3063 3062 3061 3060 3059
3071 3073 3075 3075 3077 3076 3076 3075 3075 3074 3072 3071 3070 3069 3068 3068 3068 3068 3068 3068 3067 3067 3067 3068 3068 3067 3067 3066 3065 3065 3065 3065 3064 3063 3062 3061 3061 3059 3058 3057 3056 3055 3054
3065 3067 3068 3068 3069 3068 3068 3067 3066 3065 3064 3062 3061 3061 3060 3060 3060 3060 3061 3062 3061 3061 3062 3063 3063 3063 3063 3063 3062 3063 3062 3062 3061 3059 3058 3056 3056 3055 3053 3052 3051 3049 3049
3060 3061 3061 3062 3062 3061 3061 3060 3058 3057 3056 3054 3052 3052 3052 3052 3053 3053 3054 3055 3057 3057 3057 3059 3059 3060 3061 3060 3059 3060 3058 3058 3057 3055 3053 3052 3051 3048 3047 3046 3044 3043 3042
3055 3056 3056 3056 3055 3054 3052 3052 3051 3050 3048 3047 3045 3045 3045 3045 3046 3047 3048 3050 3051 3054 3054 3054 3055 3057 3057 3057 3056 3055 3054 3053 3052 3050 3048 3048 3047 3044 3041 3039 3038 3037 3035
3050 3050 3050 3049 3047 3046 3046 3045 3044 3042 3040 3038 3038 3037 3038 3039 3040 3042 3044 3044 3047 3050 3051 3050 3051 3053 3052 3052 3051 3051 3050 3048 3047 3044 3043 3042 3040 3038 3036 3035 3033 3032 3030
3044 3044 3043 3042 3041 3040 3039 3038 3036 3034 3033 3032 3032 3032 3032 3034 3036 3039 3040 3040 3043 3047 3047 3046 3047 3048 3047 3047 3046 3046 3044 3042 3040 3039 3037 3037 3034 3032 3030 3028 3027 3026 3024
3039 3038 3037 3036 3035 3034 3032 3031 3030 3028 3027 3027 3027 3027 3029 3031 3033 3035 3036 3038 3040 3041 3043 3043 3043 3043 3043 3042 3041 3039 3039 3037 3035 3033 3032 3030 3029 3026 3024 3023 3021 3020 3019
3032 3032 3031 3030 3029 3028 3026 3026 3024 3023 3022 3023 3023 3024 3027 3027 3029 3032 3034 3035 3036 3037 3038 3039 3039 3039 3038 3037 3035 3034 3033 3031 3030 3028 3026 3024 3023 3021 3019 3018 3016 3014 3013
3026 3025 3025 3024 3023 3022 3022 3021 3021 3020 3019 3020 3021 3022 3024 3026 3028 3029 3030 3031 3032 3033 3034 3034 3035 3034 3034 3031 3029 3028 3027 3026 3023 3022 3020 3018 3016 3015 3014 3012 3010 3008 3006
3018 3018 3017 3017 3017 3015 3016 3017 3017 3016 3017 3018 3019 3021 3022 3023 3025 3025 3026 3027 3028 3028 3028 3029 3030 3029 3028 3026 3024 3022 3021 3019 3017 3015 3014 3012 3011 3009 3007 3006 3004 3002 3000
3010 3010 3009 3009 3009 3009 3010 3012 3012 3013 3014 3015 3016 3018 3019 3020 3021 3022 3022 3023 3023 3023 3023 3023 3023 3022 3021 3020 3018 3017 3015 3014 3012 3010 3008 3006 3004 3003 3001 2999 2997 2995 2993
3001 3001 3002 3001 3000 3001 3003 3006 3007 3008 3010 3011 3012 3013 3015 3015 3016 3017 3018 3017 3017 3017 3017 3018 3017 3015 3015 3014 3012 3011 3009 3007 3005 3003 3001 2999 2997 2995 2993 2991 2989 2987 2985
2990 2992 2994 2994 2994 2994 2996 2999 3002 3004 3005 3006 3007 3009 3010 3010 3011 3011 3011 3011 3011 3011 3011 3010 3010 3009 3008 3007 3005 3004 3002 3001 2998 2996 2994 2992 2990 2987 2985 2983 2981 2979 2977
2987 2986 2985 2985 2986 2988 2989 2993 2996 2997 2999 3001 3002 3003 3003 3005 3005 3005 3005 3005 3004 3005 3004 3003 3003 3002 3001 3000 2998 2997 2995 2993 2991 2989 2987 2984 2982 2980 2977 2975 2973 2971 2969
2981 2981 2981 2979 2980 2982 2983 2985 2988 2990 2992 2994 2995 2996 2997 2997 2997 2997 2997 2997 2997 2996 2996 2995 2995 2994 2993 2991 2990 2989 2986 2985 2983 2981 2979 2976 2973 2971 2969 2966 2964 2962 2960
2977 2976 2976 2976 2976 2977 2979 2980 2981 2984 2985 2987 2988 2989 2989 2989 2989 2989 2989 2989 2988 2988 2987 2987 2986 2985 2984 2983 2981 2980 2978 2976 2974 2972 2970 2967 2965 2962 2960 2958 2956 2954 2952
2971 2971 2971 2971 2972 2973 2975 2976 2978 2979 2980 2981 2982 2983 2982 2982 2983 2982 2982 2981 2981 2980 2980 2979 2978 2977 2975 2974 2972 2971 2969 2967 2965 2962 2960 2958 2956 2954 2952 2950 2948 2946 2943
2963 2965 2965 2965 2966 2968 2969 2970 2972 2973 2974 2974 2975 2975 2974 2974 2974 2974 2973 2973 2972 2971 2970 2969 2968 2966 2966 2964 2962 2960 2959 2958 2955 2953 2951 2949 2947 2945 2943 2941 2939 2936 2933
2955 2956 2957 2958 2960 2962 2963 2964 2965 2966 2966 2967 2968 2967 2966 2965 2965 2965 2964 2964 2962 2961 2960 2958 2957 2956 2955 2953 2952 2950 2949 2948 2946 2944 2943 2941 2939 2937 2934 2932 2929 2927 2924
2946 2947 2949 2950 2952 2955 2955 2956 2957 2958 2958 2959 2959 2959 2957 2957 2956 2955 2955 2953 2952 2951 2949 2948 2947 2946 2944 2943 2942 2940 2939 2938 2937 2935 2933 2932 2930 2928 2925 2922 2919 2916 2914
2938 2939 2940 2942 2944 2947 2949 2950 2950 2951 2950 2950 2950 2949 2948 2947 2946 2946 2945 2944 2942 2941 2939 2938 2937 2936 2935 2933 2932 2931 2930 2929 2928 2926 2924 2923 2921 2918 2915 2912 2910 2907 2904
2931 2932 2933 2935 2937 2939 2940 2941 2941 2941 2940 2940 2939 2938 2937 2936 2936 2935 2934 2933 2932 2930 2929 2929 2928 2927 2925 2925 2924 2923 2922 2921 2919 2917 2915 2913 2911 2908 2905 2902 2900 2897 2894
2925 2926 2928 2929 2930 2931 2932 2932 2932 2931 2931 2930 2930 2929 2927 2927 2926 2925 2924 2923 2922 2921 2920 2920 2919 2918 2918 2917 2916 2915 2914 2913 2910 2908 2905 2904 2902 2899 2895 2892 2890 2886 2884